Time,TemperatureF,DewpointF,PressureIn,WindDirection,WindDirectionDegrees,WindSpeedMPH,WindSpeedGustMPH,Humidity,HourlyPrecipIn,Conditions,Clouds,dailyrainin,SoftwareType,DateUTC
2013-05-06 00:02:00,62.0,14.0,29.96,South,175,11.0,20.0,15,0.00,,,-99.99,,2013-05-06 06:02:00,
2013-05-06 00:12:00,62.0,14.0,29.96,South,175,11.0,20.0,15,0.00,,,-99.99,,2013-05-06 06:12:00,
2013-05-06 00:21:00,63.0,15.0,29.96,NE,52,6.0,14.0,15,0.00,,,-99.99,,2013-05-06 06:21:00,
2013-05-06 00:31:00,62.0,15.0,29.97,East,97,3.0,8.0,16,0.00,,,-99.99,,2013-05-06 06:31:00,
2013-05-06 00:42:00,62.0,15.0,29.97,East,97,3.0,8.0,16,0.00,,,-99.99,,2013-05-06 06:42:00,
2013-05-06 00:52:00,61.0,17.0,29.97,NNE,29,9.0,12.0,18,0.00,,,-99.99,,2013-05-06 06:52:00,
2013-05-06 01:01:00,61.0,14.0,29.96,North,358,8.0,12.0,16,0.00,,,-99.99,,2013-05-06 07:01:00,
2013-05-06 01:11:00,61.0,14.0,29.96,North,358,8.0,12.0,16,0.00,,,-99.99,,2013-05-06 07:11:00,
2013-05-06 01:22:00,61.0,14.0,29.96,SSE,150,0.0,3.0,16,0.00,,,-99.99,,2013-05-06 07:22:00,
2013-05-06 01:31:00,61.0,14.0,29.95,NW,319,6.0,6.0,16,0.00,,,-99.99,,2013-05-06 07:31:00,
2013-05-06 01:42:00,61.0,14.0,29.95,NW,319,6.0,6.0,16,0.00,,,-99.99,,2013-05-06 07:42:00,
2013-05-06 01:52:00,61.0,16.0,29.95,North,11,0.0,0.0,17,0.00,,,-99.99,,2013-05-06 07:52:00,
2013-05-06 02:01:00,59.0,18.0,29.95,WNW,284,6.0,6.0,20,0.00,,,-99.99,,2013-05-06 08:01:00,
2013-05-06 02:12:00,59.0,18.0,29.95,WNW,284,6.0,6.0,20,0.00,,,-99.99,,2013-05-06 08:12:00,
2013-05-06 02:22:00,58.0,18.0,29.95,WNW,295,3.0,0.0,21,0.00,,,-99.99,,2013-05-06 08:22:00,
2013-05-06 02:31:00,57.0,17.0,29.95,NNW,343,0.0,1.0,21,0.00,,,-99.99,,2013-05-06 08:31:00,
2013-05-06 02:41:00,57.0,17.0,29.95,NNW,343,0.0,1.0,21,0.00,,,-99.99,,2013-05-06 08:41:00,
2013-05-06 02:52:00,57.0,19.0,29.95,North,350,6.0,0.0,22,0.00,,,-99.99,,2013-05-06 08:52:00,
2013-05-06 03:01:00,56.0,18.0,29.94,NNW,331,3.0,6.0,22,0.00,,,-99.99,,2013-05-06 09:01:00,
2013-05-06 03:11:00,56.0,18.0,29.94,NNW,331,3.0,6.0,22,0.00,,,-99.99,,2013-05-06 09:11:00,
2013-05-06 03:22:00,56.0,19.0,29.95,NNW,338,0.0,0.0,23,0.00,,,-99.99,,2013-05-06 09:22:00,
2013-05-06 03:33:00,56.0,19.0,29.96,NNW,338,0.0,0.0,23,0.00,,,-99.99,,2013-05-06 09:33:00,
2013-05-06 03:42:00,56.0,19.0,29.96,NNW,338,0.0,0.0,23,0.00,,,-99.99,,2013-05-06 09:42:00,
2013-05-06 03:53:00,55.0,18.0,29.96,NNW,341,7.0,7.0,23,0.00,,,-99.99,,2013-05-06 09:53:00,
2013-05-06 04:02:00,55.0,18.0,29.96,NNE,21,4.0,7.0,23,0.00,,,-99.99,,2013-05-06 10:02:00,
2013-05-06 04:12:00,55.0,18.0,29.96,NNE,21,4.0,7.0,23,0.00,,,-99.99,,2013-05-06 10:12:00,
2013-05-06 04:22:00,55.0,18.0,29.96,NNE,32,1.0,2.0,23,0.00,,,-99.99,,2013-05-06 10:22:00,
2013-05-06 04:32:00,55.0,20.0,29.96,NNW,347,1.0,4.0,25,0.00,,,-99.99,,2013-05-06 10:32:00,
2013-05-06 04:41:00,55.0,20.0,29.96,NNW,347,1.0,4.0,25,0.00,,,-99.99,,2013-05-06 10:41:00,
2013-05-06 04:52:00,55.0,18.0,29.95,North,2,0.0,1.0,23,0.00,,,-99.99,,2013-05-06 10:52:00,
2013-05-06 05:02:00,55.0,19.0,29.95,North,2,0.0,0.0,24,0.00,,,-99.99,,2013-05-06 11:02:00,
2013-05-06 05:12:00,55.0,19.0,29.95,North,2,0.0,0.0,24,0.00,,,-99.99,,2013-05-06 11:12:00,
2013-05-06 05:22:00,55.0,20.0,29.94,North,2,0.0,0.0,25,0.00,,,-99.99,,2013-05-06 11:22:00,
2013-05-06 05:31:00,55.0,20.0,29.94,North,2,0.0,0.0,25,0.00,,,-99.99,,2013-05-06 11:31:00,
2013-05-06 05:42:00,55.0,20.0,29.94,North,2,0.0,0.0,25,0.00,,,-99.99,,2013-05-06 11:42:00,
2013-05-06 05:52:00,55.0,20.0,29.93,North,2,0.0,0.0,25,0.00,,,-99.99,,2013-05-06 11:52:00,
2013-05-06 06:01:00,55.0,20.0,29.93,North,2,0.0,0.0,25,0.00,,,-99.99,,2013-05-06 12:01:00,
2013-05-06 06:12:00,55.0,20.0,29.93,North,2,0.0,0.0,25,0.00,,,-99.99,,2013-05-06 12:12:00,
2013-05-06 06:21:00,56.0,20.0,29.94,North,2,0.0,0.0,24,0.00,,,-99.99,,2013-05-06 12:21:00,
2013-05-06 06:32:00,55.0,20.0,29.93,North,2,0.0,0.0,25,0.00,,,-99.99,,2013-05-06 12:32:00,
2013-05-06 06:41:00,55.0,20.0,29.93,North,2,0.0,0.0,25,0.00,,,-99.99,,2013-05-06 12:41:00,
2013-05-06 06:52:00,55.0,20.0,29.93,West,262,0.0,3.0,25,0.00,,,-99.99,,2013-05-06 12:52:00,
2013-05-06 07:01:00,55.0,21.0,29.94,SE,139,0.0,3.0,26,0.00,,,-99.99,,2013-05-06 13:01:00,
2013-05-06 07:11:00,55.0,21.0,29.94,SE,139,0.0,3.0,26,0.00,,,-99.99,,2013-05-06 13:11:00,
2013-05-06 07:21:00,57.0,27.0,29.93,SW,217,6.0,11.0,32,0.00,,,-99.99,,2013-05-06 13:21:00,
2013-05-06 07:32:00,56.0,22.0,29.94,West,278,4.0,8.0,26,0.00,,,-99.99,,2013-05-06 13:32:00,
2013-05-06 07:42:00,56.0,22.0,29.94,West,278,4.0,8.0,26,0.00,,,-99.99,,2013-05-06 13:42:00,
2013-05-06 07:52:00,56.0,22.0,29.95,West,261,6.0,12.0,26,0.00,,,-99.99,,2013-05-06 13:52:00,
2013-05-06 08:01:00,56.0,21.0,29.95,WNW,291,7.0,15.0,25,0.00,,,-99.99,,2013-05-06 14:01:00,
2013-05-06 08:11:00,56.0,21.0,29.95,WNW,291,7.0,15.0,25,0.00,,,-99.99,,2013-05-06 14:11:00,
2013-05-06 08:21:00,55.0,23.0,29.96,NW,313,8.0,8.0,28,0.00,,,-99.99,,2013-05-06 14:21:00,
2013-05-06 08:32:00,56.0,22.0,29.97,NW,320,7.0,7.0,26,0.00,,,-99.99,,2013-05-06 14:32:00,
2013-05-06 08:42:00,56.0,21.0,29.97,North,7,6.0,7.0,25,0.00,,,-99.99,,2013-05-06 14:42:00,
2013-05-06 08:52:00,56.0,21.0,29.97,North,7,6.0,7.0,25,0.00,,,-99.99,,2013-05-06 14:52:00,
2013-05-06 09:01:00,57.0,22.0,29.97,WNW,298,0.0,2.0,25,0.00,,,-99.99,,2013-05-06 15:01:00,
2013-05-06 09:11:00,57.0,22.0,29.97,WNW,298,0.0,2.0,25,0.00,,,-99.99,,2013-05-06 15:11:00,
2013-05-06 09:21:00,60.0,23.0,29.98,South,175,10.0,20.0,24,0.00,,,-99.99,,2013-05-06 15:21:00,
2013-05-06 09:33:00,60.0,24.0,29.97,South,181,10.0,18.0,25,0.00,,,-99.99,,2013-05-06 15:33:00,
2013-05-06 09:42:00,60.0,24.0,29.97,South,181,10.0,18.0,25,0.00,,,-99.99,,2013-05-06 15:42:00,
2013-05-06 09:53:00,60.0,21.0,29.96,South,185,8.0,14.0,22,0.00,,,-99.99,,2013-05-06 15:53:00,
2013-05-06 10:03:00,60.0,23.0,29.97,South,174,13.0,21.0,24,0.00,,,-99.99,,2013-05-06 16:03:00,
2013-05-06 10:13:00,60.0,23.0,29.97,South,174,13.0,21.0,24,0.00,,,-99.99,,2013-05-06 16:13:00,
2013-05-06 10:23:00,59.0,23.0,29.96,SW,215,12.0,23.0,25,0.00,,,-99.99,,2013-05-06 16:23:00,
2013-05-06 10:32:00,59.0,22.0,29.98,WSW,250,18.0,26.0,24,0.00,,,-99.99,,2013-05-06 16:32:00,
2013-05-06 10:41:00,59.0,22.0,29.98,WSW,250,18.0,26.0,24,0.00,,,-99.99,,2013-05-06 16:41:00,
2013-05-06 10:52:00,55.0,35.0,29.99,WSW,250,20.0,25.0,47,0.00,,,-99.99,,2013-05-06 16:52:00,
2013-05-06 11:02:00,57.0,35.0,30.00,SW,226,15.0,22.0,44,0.00,,,-99.99,,2013-05-06 17:02:00,
2013-05-06 11:12:00,57.0,35.0,30.00,SW,226,15.0,22.0,44,0.00,,,-99.99,,2013-05-06 17:12:00,
2013-05-06 11:23:00,58.0,38.0,29.99,South,184,7.0,15.0,47,0.00,,,-99.99,,2013-05-06 17:23:00,
2013-05-06 11:31:00,57.0,36.0,29.98,SW,217,13.0,13.0,45,0.00,,,-99.99,,2013-05-06 17:31:00,
2013-05-06 11:42:00,57.0,36.0,29.98,SW,217,13.0,13.0,45,0.00,,,-99.99,,2013-05-06 17:42:00,
2013-05-06 11:52:00,57.0,35.0,29.97,South,178,8.0,14.0,44,0.00,,,-99.99,,2013-05-06 17:52:00,
2013-05-06 12:01:00,58.0,36.0,29.97,SSW,208,11.0,19.0,44,0.00,,,-99.99,,2013-05-06 18:01:00,
2013-05-06 12:12:00,58.0,36.0,29.97,SSW,208,11.0,19.0,44,0.00,,,-99.99,,2013-05-06 18:12:00,
2013-05-06 12:21:00,59.0,36.0,29.96,SW,232,17.0,21.0,42,0.00,,,-99.99,,2013-05-06 18:21:00,
2013-05-06 12:31:00,59.0,35.0,29.96,SW,225,15.0,26.0,40,0.00,,,-99.99,,2013-05-06 18:31:00,
2013-05-06 12:43:00,59.0,35.0,29.96,SW,225,15.0,26.0,40,0.00,,,-99.99,,2013-05-06 18:43:00,
2013-05-06 12:52:00,61.0,37.0,29.96,SW,233,10.0,20.0,41,0.00,,,-99.99,,2013-05-06 18:52:00,
2013-05-06 13:01:00,59.0,37.0,29.96,SW,215,12.0,24.0,44,0.00,,,-99.99,,2013-05-06 19:01:00,
2013-05-06 13:11:00,59.0,37.0,29.96,SW,215,12.0,24.0,44,0.00,,,-99.99,,2013-05-06 19:11:00,
2013-05-06 13:22:00,62.0,37.0,29.95,WSW,244,11.0,23.0,39,0.00,,,-99.99,,2013-05-06 19:22:00,
2013-05-06 13:32:00,60.0,36.0,29.95,WSW,239,9.0,21.0,40,0.00,,,-99.99,,2013-05-06 19:32:00,
2013-05-06 13:41:00,60.0,36.0,29.95,WSW,239,9.0,21.0,40,0.00,,,-99.99,,2013-05-06 19:41:00,
2013-05-06 13:52:00,61.0,36.0,29.95,SW,232,9.0,20.0,39,0.00,,,-99.99,,2013-05-06 19:52:00,
2013-05-06 14:01:00,60.0,33.0,29.95,SW,233,11.0,21.0,36,0.00,,,-99.99,,2013-05-06 20:01:00,
2013-05-06 14:11:00,60.0,33.0,29.95,SW,233,11.0,21.0,36,0.00,,,-99.99,,2013-05-06 20:11:00,
2013-05-06 14:21:00,61.0,34.0,29.94,WSW,250,10.0,22.0,36,0.00,,,-99.99,,2013-05-06 20:21:00,
2013-05-06 14:32:00,61.0,34.0,29.94,WSW,246,14.0,16.0,36,0.00,,,-99.99,,2013-05-06 20:32:00,
2013-05-06 14:42:00,61.0,34.0,29.94,WSW,246,14.0,16.0,36,0.00,,,-99.99,,2013-05-06 20:42:00,
2013-05-06 14:52:00,62.0,34.0,29.93,WNW,300,6.0,18.0,35,0.00,,,-99.99,,2013-05-06 20:52:00,
2013-05-06 15:01:00,63.0,31.0,29.93,WSW,244,12.0,22.0,30,0.00,,,-99.99,,2013-05-06 21:01:00,
2013-05-06 15:11:00,63.0,31.0,29.93,WSW,244,12.0,22.0,30,0.00,,,-99.99,,2013-05-06 21:11:00,
2013-05-06 15:21:00,63.0,30.0,29.93,West,264,11.0,17.0,29,0.00,,,-99.99,,2013-05-06 21:21:00,
2013-05-06 15:32:00,64.0,31.0,29.92,WSW,239,14.0,15.0,29,0.00,,,-99.99,,2013-05-06 21:32:00,
2013-05-06 15:42:00,64.0,31.0,29.92,WSW,239,14.0,15.0,29,0.00,,,-99.99,,2013-05-06 21:42:00,
2013-05-06 15:53:00,64.0,29.0,29.91,WSW,253,7.0,17.0,27,0.00,,,-99.99,,2013-05-06 21:53:00,
2013-05-06 16:03:00,65.0,26.0,29.90,WSW,240,12.0,19.0,23,0.00,,,-99.99,,2013-05-06 22:03:00,
2013-05-06 16:12:00,65.0,26.0,29.90,WSW,240,12.0,19.0,23,0.00,,,-99.99,,2013-05-06 22:12:00,
2013-05-06 16:22:00,66.0,24.0,29.90,SW,222,14.0,19.0,20,0.00,,,-99.99,,2013-05-06 22:22:00,
2013-05-06 16:33:00,66.0,24.0,29.90,WSW,248,10.0,21.0,20,0.00,,,-99.99,,2013-05-06 22:33:00,
2013-05-06 16:45:00,66.0,24.0,29.90,WSW,248,10.0,21.0,20,0.00,,,-99.99,,2013-05-06 22:45:00,
2013-05-06 16:52:00,65.0,26.0,29.89,West,261,6.0,18.0,23,0.00,,,-99.99,,2013-05-06 22:52:00,
2013-05-06 17:02:00,66.0,24.0,29.89,SW,225,12.0,23.0,20,0.00,,,-99.99,,2013-05-06 23:02:00,
2013-05-06 17:12:00,66.0,24.0,29.89,SW,225,12.0,23.0,20,0.00,,,-99.99,,2013-05-06 23:12:00,
2013-05-06 17:22:00,67.0,25.0,29.88,SW,232,12.0,23.0,20,0.00,,,-99.99,,2013-05-06 23:22:00,
2013-05-06 17:31:00,66.0,25.0,29.88,West,262,7.0,12.0,21,0.00,,,-99.99,,2013-05-06 23:31:00,
2013-05-06 17:41:00,66.0,25.0,29.88,West,262,7.0,12.0,21,0.00,,,-99.99,,2013-05-06 23:41:00,
2013-05-06 17:52:00,67.0,22.0,29.88,NW,309,10.0,16.0,18,0.00,,,-99.99,,2013-05-06 23:52:00,
2013-05-06 18:01:00,66.0,21.0,29.88,WSW,248,11.0,20.0,18,0.00,,,-99.99,,2013-05-07 00:01:00,
2013-05-06 18:11:00,66.0,21.0,29.88,WSW,248,11.0,20.0,18,0.00,,,-99.99,,2013-05-07 00:11:00,
2013-05-06 18:21:00,67.0,23.0,29.88,WNW,299,12.0,12.0,19,0.00,,,-99.99,,2013-05-07 00:21:00,
2013-05-06 18:31:00,66.0,23.0,29.88,West,278,12.0,14.0,19,0.00,,,-99.99,,2013-05-07 00:31:00,
2013-05-06 18:41:00,66.0,23.0,29.88,West,278,12.0,14.0,19,0.00,,,-99.99,,2013-05-07 00:41:00,
2013-05-06 18:52:00,67.0,21.0,29.89,West,262,7.0,23.0,17,0.00,,,-99.99,,2013-05-07 00:52:00,
2013-05-06 19:01:00,67.0,22.0,29.88,WNW,295,7.0,18.0,18,0.00,,,-99.99,,2013-05-07 01:01:00,
2013-05-06 19:11:00,67.0,22.0,29.88,WNW,295,7.0,18.0,18,0.00,,,-99.99,,2013-05-07 01:11:00,
2013-05-06 19:21:00,67.0,22.0,29.89,NW,317,6.0,14.0,18,0.00,,,-99.99,,2013-05-07 01:21:00,
2013-05-06 19:32:00,67.0,21.0,29.89,West,275,12.0,16.0,17,0.00,,,-99.99,,2013-05-07 01:32:00,
2013-05-06 19:42:00,67.0,21.0,29.89,West,275,12.0,16.0,17,0.00,,,-99.99,,2013-05-07 01:42:00,
2013-05-06 19:53:00,66.0,23.0,29.90,WSW,241,8.0,13.0,19,0.00,,,-99.99,,2013-05-07 01:53:00,
2013-05-06 20:02:00,66.0,23.0,29.90,West,275,6.0,8.0,19,0.00,,,-99.99,,2013-05-07 02:02:00,
2013-05-06 20:11:00,66.0,23.0,29.90,West,275,6.0,8.0,19,0.00,,,-99.99,,2013-05-07 02:11:00,
2013-05-06 20:21:00,66.0,24.0,29.91,West,275,1.0,8.0,20,0.00,,,-99.99,,2013-05-07 02:21:00,
2013-05-06 20:31:00,65.0,23.0,29.92,NW,310,0.0,0.0,20,0.00,,,-99.99,,2013-05-07 02:31:00,
2013-05-06 20:41:00,65.0,23.0,29.92,NW,310,0.0,0.0,20,0.00,,,-99.99,,2013-05-07 02:41:00,
2013-05-06 20:52:00,65.0,24.0,29.92,NW,310,0.0,0.0,21,0.00,,,-99.99,,2013-05-07 02:52:00,
2013-05-06 21:01:00,65.0,24.0,29.93,NW,310,0.0,0.0,21,0.00,,,-99.99,,2013-05-07 03:01:00,
2013-05-06 21:11:00,65.0,24.0,29.93,NW,310,0.0,0.0,21,0.00,,,-99.99,,2013-05-07 03:11:00,
2013-05-06 21:21:00,64.0,25.0,29.93,West,277,0.0,0.0,23,0.00,,,-99.99,,2013-05-07 03:21:00,
2013-05-06 21:32:00,64.0,26.0,29.95,West,277,0.0,0.0,24,0.00,,,-99.99,,2013-05-07 03:32:00,
2013-05-06 21:42:00,64.0,26.0,29.95,West,277,0.0,0.0,24,0.00,,,-99.99,,2013-05-07 03:42:00,
2013-05-06 21:53:00,64.0,27.0,29.95,West,277,0.0,0.0,25,0.00,,,-99.99,,2013-05-07 03:53:00,
2013-05-06 22:02:00,64.0,25.0,29.96,NW,317,0.0,0.0,23,0.00,,,-99.99,,2013-05-07 04:02:00,
2013-05-06 22:12:00,64.0,25.0,29.96,NW,317,0.0,0.0,23,0.00,,,-99.99,,2013-05-07 04:12:00,
2013-05-06 22:23:00,64.0,27.0,29.96,NW,317,0.0,0.0,25,0.00,,,-99.99,,2013-05-07 04:23:00,
2013-05-06 22:33:00,64.0,26.0,29.96,WNW,295,0.0,0.0,24,0.00,,,-99.99,,2013-05-07 04:33:00,
2013-05-06 22:42:00,64.0,26.0,29.96,WNW,295,0.0,0.0,24,0.00,,,-99.99,,2013-05-07 04:42:00,
2013-05-06 22:53:00,64.0,27.0,29.97,WNW,295,0.0,0.0,25,0.00,,,-99.99,,2013-05-07 04:53:00,
2013-05-06 23:02:00,63.0,29.0,29.98,NNE,28,3.0,8.0,27,0.00,,,-99.99,,2013-05-07 05:02:00,
2013-05-06 23:12:00,63.0,29.0,29.98,NNE,28,3.0,8.0,27,0.00,,,-99.99,,2013-05-07 05:12:00,
2013-05-06 23:22:00,62.0,28.0,29.98,NNE,30,0.0,0.0,27,0.00,,,-99.99,,2013-05-07 05:22:00,
2013-05-06 23:32:00,62.0,29.0,29.98,NNE,30,0.0,0.0,28,0.00,,,-99.99,,2013-05-07 05:32:00,
2013-05-06 23:42:00,62.0,29.0,29.98,NNE,30,0.0,0.0,28,0.00,,,-99.99,,2013-05-07 05:42:00,
2013-05-06 23:52:00,62.0,31.0,29.98,NNE,30,0.0,0.0,31,0.00,,,-99.99,,2013-05-07 05:52:00,